Dati Storici

Data ora Umidita' aria (%) Temperatura aria (°C) Rad globale (W/m²) Gonioanemometro (°) Tacoanemometro (m/s) Pioggia (mm)
28-06-2020 12:50 65.1 % 28.468 198.138 0.94 0 0
28-06-2020 12:40 65.3 % 29.171 83.363 1.482 0 0
28-06-2020 12:30 63 % 28.845 109.03 0.802 0 0
28-06-2020 12:20 68.1 % 28.944 117.667 1.608 0 0
28-06-2020 12:10 69.5 % 28.322 52.943 2.403 0 0
28-06-2020 12:00 71.9 % 27.984 107.952 0.684 0 0
28-06-2020 11:50 72.4 % 28.085 92.458 2.155 0 0
28-06-2020 11:40 74 % 27.982 142.329 0.92 0 0
28-06-2020 11:30 75 % 27.623 134.313 2.234 0 0
28-06-2020 11:20 76.5 % 28.347 101.298 0.239 0 0
28-06-2020 11:10 79 % 27.472 196.734 1.533 0 0
28-06-2020 11:00 81.2 % 27.067 98.035 1.211 0 0
28-06-2020 10:50 81.4 % 27.452 135.596 0.323 0 0
28-06-2020 10:40 78.9 % 27.425 135.191 1.859 0 0
28-06-2020 10:30 73.8 % 28.066 126.489 1.232 0 0
28-06-2020 10:20 71.5 % 28.11 86.329 2.276 0 0
28-06-2020 10:10 77.6 % 27.342 80.958 1.499 0 0
28-06-2020 10:00 78.6 % 27.141 79.67 1.69 0 0
28-06-2020 09:50 85 % 27.469 90.256 1.628 0 0
28-06-2020 09:40 86.4 % 27.257 48.709 0.109 0 0

I dati sono presentati in modo automatico a scopo informativo. In seguito a verifica i dati possono subire modifiche o essere invalidati e non riportati negli archivi definitivi.